Regional Weather Roundup
Issued by NWS Grand Forks, ND

Home | Current Version | Previous Version | Graphics & Text | Print | Product List | Glossary On
Versions: 1 2 3 4 5 6 7 8 9 10 11 12 13 14 15 16 17 18 19 20 21 22 23 24 25 26 27 28 29 30 31 32 33 34 35 36 37 38 39 40 41 42 43 44 45 46 47 48 49 50
000
ASUS43 KFGF 291210
RWRFGF
PRAIRIE TO PINES  WEATHER ROUNDUP
NATIONAL WEATHER SERVICE EASTERN NORTH DAKOTA/GRAND FORKS ND
700 AM CDT MON AUG 29 2016

 **SATELLITE DATA USED TO AUGMENT SKY COVER AT AUTOMATED STATIONS**
 *****  WEATHER ACROSS EASTERN NORTH DAKOTA  *****

CITY           SKY/WX    TMP DP  RH WIND       PRES   REMARKS
GRAND FORKS    CLOUDY    67  63  87 N8        30.06S
6HR MIN TEMP:  65; 6HR MAX TEMP:  70; 6HR PCP: TRACE;

GRAND FRKS AFB CLOUDY    64  63  95 N7        30.09R
GRAND FRKS NWS   N/A     66 N/A N/A N2          N/A
DEVILS LAKE    CLEAR     59  56  89 N13       30.15R
6HR MIN TEMP:  59; 6HR MAX TEMP:  70;

FARGO          CLOUDY    70  66  87 E8        30.07R
WAHPETON ARPT  SUNNY     70  64  83 SE10      30.08R
$$

 ***** WEATHER ACROSS CENTRAL AND WESTERN NORTH DAKOTA  *****

CITY           SKY/WX    TMP DP  RH WIND       PRES   REMARKS
BISMARCK       CLEAR     61  54  77 NW3       30.16R
6HR MIN TEMP:  61; 6HR MAX TEMP:  72;

MINOT          CLEAR     54  49  83 NW12      30.22R
6HR MIN TEMP:  54; 6HR MAX TEMP:  63;

JAMESTOWN      CLEAR     66  64  93 N9        30.10R
6HR MIN TEMP:  62; 6HR MAX TEMP:  69;

MINOT AFB      CLEAR     48  46  92 W8        30.23R
GARRISON         N/A     58  50  75 N13       30.21R
WILLISTON      CLEAR     51  44  77 N7        30.28R
6HR MIN TEMP:  51; 6HR MAX TEMP:  64;

DICKINSON      CLOUDY    60  47  61 N10       30.23R
6HR MIN TEMP:  60; 6HR MAX TEMP:  68;

HETTINGER      CLOUDY    63  51  65 N13       30.21S
6HR MIN TEMP:  63; 6HR MAX TEMP:  71;

$$

 *****  OTHER AIRPORT OBSERVATIONS IN OUR AREA  *****

CITY           SKY/WX    TMP DP  RH WIND       PRES   REMARKS
WALHALLA       NOT AVBL
GRAFTON AIRPOR FAIR      63  63 100 CALM      30.12R
VALLEY CITY AR FOG       66  66 100 N9        30.10R VSB 1
CANDO          NOT AVBL
CAVALIER APRT  FAIR      64  61  88 NW13      30.10R
GWINNER        FAIR      66  66 100 W7        30.07R
SHEYENNE NWR     N/A     63  62  98 CALM      29.95S
ROLLA          FAIR      52  50  93 N13G20    30.20R
 ***** THE ABOVE OBSERVATIONS ARE NON NWS ARE NOT QUALITY
       CONTROLLED AND MAY MIS-REPORT RAIN FOR SNOW...
$$

  *****  WEATHER ACROSS NORTHERN MINNESOTA  *****

CITY           SKY/WX    TMP DP  RH WIND       PRES   REMARKS
FLAG ISLAND    CLOUDY    66  63  88 S7        30.05S
WARROAD        CLOUDY    64  61  88 S3        30.07S
ROSEAU         PTCLDY    64  59  82 S8        30.07R
HALLOCK        CLOUDY    66  64  94 NW7       30.08R
THF RVR FALLS  CLOUDY    66  64  93 E3        30.11R
6HR MIN TEMP:  63; 6HR MAX TEMP:  68;

BAUDETTE       CLOUDY    62  61  96 E8        30.10R
6HR MIN TEMP:  61; 6HR MAX TEMP:  65; 6HR PCP: TRACE;

WASKISH        CLOUDY    64  63  94 S5        30.10R
CROOKSTON      CLOUDY    68  64  88 NE3       30.08F
GREENBUSH NDAW   N/A     64  64 100 SW2         N/A
$$
  *****  WEATHER ACROSS CENTRAL AND WEST MINNESOTA  *****

CITY           SKY/WX    TMP DP  RH WIND       PRES   REMARKS
FOSSTON        CLOUDY    63  61  94 S3        30.10R
BEMIDJI        CLOUDY    62  61  98 SE3       30.10S
PARK RAPIDS    CLOUDY    65  61  87 S10       30.11R
6HR MIN TEMP:  64; 6HR MAX TEMP:  74; 6HR PCP:  0.82;

ELBOW LAKE     FAIR      69  67  92 SE12      30.10R THUNDER
WADENA         CLOUDY    63  63 100 SE14      30.12F
DETROIT LAKES  CLOUDY    68  63  83 SE16      30.12S
MOORHEAD       CLOUDY    72  66  83 SE7       30.09R
FERGUS FALLS   CLOUDY    70  68  94 E6        30.11R
MORRIS MN      CLOUDY    72  64  78 E15G22    30.12R THUNDER
STAPLES        LGT RAIN  63  63 100 SE7G17    30.13F
$$
  *****  WEATHER ELSEWHERE ACROSS MINNESOTA  *****

CITY           SKY/WX    TMP DP  RH WIND       PRES   REMARKS
DULUTH         LGT RAIN  63  62  97 SE6       30.13F
6HR MIN TEMP:  62; 6HR MAX TEMP:  67; 6HR PCP:  0.99;

INTRNTL FALLS  CLOUDY    64  61  90 CALM      30.16R
6HR MIN TEMP:  62; 6HR MAX TEMP:  64; 6HR PCP:  0.13;

ELY            CLOUDY    61  61 100 CALM      30.13S
CLOQUET        LGT RAIN  63  61  94 SE9       30.16F
WHEATON        CLOUDY    72  70  94 E10       30.10R
BRAINERD       LGT RAIN  64  63  96 SE15G23   30.14F
6HR MIN TEMP:  63; 6HR MAX TEMP:  72; 6HR PCP:  0.49;

HIBBING        CLOUDY    61  59  93 N3        30.13R
6HR MIN TEMP:  60; 6HR MAX TEMP:  64; 6HR PCP:  2.17;

ALEXANDRIA     TSTM      68  66  93 E16G24    30.18R
6HR MIN TEMP:  65; 6HR MAX TEMP:  74; 6HR PCP:  2.44;

SAINT CLOUD    CLOUDY    69  68  96 E3        30.18R
6HR MIN TEMP:  67; 6HR MAX TEMP:  72;

MINNEAPOLIS    PTCLDY    70  67  90 SE7       30.18R
6HR MIN TEMP:  70; 6HR MAX TEMP:  74;

$$

  *****  WEATHER ACROSS SOUTH DAKOTA  *****

CITY           SKY/WX    TMP DP  RH WIND       PRES   REMARKS
SIOUX FALLS    PTCLDY    67  67 100 S8        30.13R
6HR MIN TEMP:  67; 6HR MAX TEMP:  73;

BROOKINGS        N/A    N/A N/A N/A MISG        N/A
WATERTOWN      CLEAR     69  67  93 S9        30.09S
6HR MIN TEMP:  69; 6HR MAX TEMP:  74;

HURON          CLEAR     68  66  93 SE7       30.07R
6HR MIN TEMP:  68; 6HR MAX TEMP:  77;

SISSETON         N/A     73  68  84 SE7       30.06R
ABERDEEN       FOG       64  63  96 SE5       30.06R VSB 3/4
6HR MIN TEMP:  63; 6HR MAX TEMP:  74;

MITCHELL       PTCLDY    68  67  96 VRB5      30.09S
PIERRE         CLEAR     62  57  83 NW3       30.05R
6HR MIN TEMP:  61; 6HR MAX TEMP:  77;

MOBRIDGE       CLEAR     66  58  75 N12       30.08R
RAPID CITY     CLEAR     62  49  62 N21       30.18R
6HR MIN TEMP:  56; 6HR MAX TEMP:  67;

$$

  *****  SOME WEATHER IN NEARBY STATES *****

CITY           SKY/WX    TMP DP  RH WIND       PRES   REMARKS
GLASGOW MT     CLOUDY    51  44  77 VRB5      30.28R
6HR MIN TEMP:  51; 6HR MAX TEMP:  61;

GREAT FALLS MT CLEAR     45  40  82 CALM      30.23S
6HR MIN TEMP:  45; 6HR MAX TEMP:  58;

CHEYENNE WY    CLOUDY    55  42  61 W8        30.31R
6HR MIN TEMP:  53; 6HR MAX TEMP:  63;

SCOTTSBLUFF NE PTCLDY    55  49  80 E3        30.20R
6HR MIN TEMP:  53; 6HR MAX TEMP:  63;

OMAHA NE       CLOUDY    71  66  84 S5        30.16R
6HR MIN TEMP:  70; 6HR MAX TEMP:  72;

DES MOINES IA  MOCLDY    72  71  97 SE7       30.17R
6HR MIN TEMP:  72; 6HR MAX TEMP:  74; 6HR PCP: TRACE;

DAVENPORT IA   MOCLDY    69  67  93 E6        30.22R FOG
6HR MIN TEMP:  68; 6HR MAX TEMP:  71;

CHICAGO IL     PTCLDY    72  69  90 NE6       30.23R
6HR MIN TEMP:  70; 6HR MAX TEMP:  73;

EAU CLAIRE WI  CLEAR     67  66  97 CALM      30.20R
6HR MIN TEMP:  65; 6HR MAX TEMP:  68;

LA CROSSE WI   CLEAR     67  66  97 SE5       30.21R
6HR MIN TEMP:  66; 6HR MAX TEMP:  70;

$$

  *****  SOME NATIONAL WEATHER *****

CITY           SKY/WX    TMP DP  RH WIND       PRES   REMARKS
LA GUARDIA NY  PTSUNNY   78  64  61 W8        30.11S
6HR MIN TEMP:  77; 6HR MAX TEMP:  78;

RALEIGH NC     CLOUDY    72  70  93 E5        30.14S
6HR MIN TEMP:  69; 6HR MAX TEMP:  75;

ATLANTA GA     PTCLDY    75  68  78 NE10      30.15R
6HR MIN TEMP:  74; 6HR MAX TEMP:  78;

NEW ORLEANS LA MOCLDY    82  76  81 NE8       29.96R
6HR MIN TEMP:  82; 6HR MAX TEMP:  82;

OKLAHOMA CITY  CLOUDY    72  67  84 CALM      30.12R
6HR MIN TEMP:  69; 6HR MAX TEMP:  73;

ALBUQUERQUE NM PTCLDY    60  44  55 N10       30.25S
6HR MIN TEMP:  60; 6HR MAX TEMP:  67;

SALT LAKE CITY CLEAR     63  39  41 S8        30.19R
6HR MIN TEMP:  63; 6HR MAX TEMP:  73;

LOS ANGELES CA CLEAR     67  61  81 N3        29.94F
6HR MIN TEMP:  67; 6HR MAX TEMP:  69;

BOISE ID       PTCLDY   C1F1C2F2C3F3C4F4C5F5C6F6C7F7C8F8C9F9CaFaCbFbCcFcCd!



USA.gov is the U.S. government's official web portal to all federal, state and local government web resources and services.